Flag for Germany Weather past 2 weeks in Würzburg, Bavaria, Germany

Now
43 °F

Light rain. Overcast.


Feels Like: 37 °F
Forecast: 37 / 43 °F
Wind: 10 mph from Southwest

Location: Wuerzburg

Current Time: Mar 31, 2015 at 5:21:16 AM

Latest Report: Mar 31, 2015 at 5:00 AM


Visibility: 11 mi

Pressure: 29.58 "Hg

Humidity: 90%

Dew point: 40 °F

Location of WürzburgLocation

Historic Weather in Würzburg — Graph

°F

Würzburg temperature yesterday

Maximum temperature yesterday: 52 °F (at 12:00 AM)
Minimum temperature yesterday: 39 °F (at 11:00 PM)
Average temperature yesterday: 45 °F

Past Weeks' High & Low Weather Summary

 TemperatureHumidityPressure
High66 °F (Mar 25, 4:00 PM)100% (Mar 24, 7:00 AM)30.32 "Hg (Mar 24, 7:00 AM)
Low30 °F (Mar 24, 7:00 AM)26% (Mar 20, 3:00 PM)29.41 "Hg (Mar 29, 11:00 PM)
Average45 °F68%30.02 "Hg
* Reported Mar 16 3:00 AM — Mar 31 4:00 AM, Würzburg, Weather by CustomWeather, © 2015

Note: Actual official high and low records may vary slightly from our data, if they occured in-between our weather recording intervals... More about our weather records

Advertising

Würzburg weather history for previous 24 hours

 ConditionsComfort  
Time TempWeatherWind HumidityBarometerVisibility
4:00 AM
Tue, Mar 31
40 °FLight rain. Overcast.8 mph89%29.65 "Hg16 mi
3:00 AM40 °FRain. Overcast.8 mph83%29.75 "Hg12 mi
2:00 AM40 °FLight rain. Overcast.7 mph67%29.84 "Hg34 mi
1:00 AM39 °FOvercast.5 mph68%29.87 "Hg34 mi
12:00 AM39 °FPassing clouds.3 mph65%29.90 "Hg34 mi
11:00 PM
Mon, Mar 30
39 °FPassing clouds.2 mph68%29.92 "Hg34 mi
10:00 PM40 °FPassing clouds.2 mph63%29.93 "Hg34 mi
9:00 PM42 °FPassing clouds.5 mph59%29.92 "Hg34 mi
8:00 PM44 °FPassing clouds.8 mph51%29.89 "Hg34 mi
7:00 PM45 °FPartly sunny.7 mph55%29.85 "Hg34 mi
6:00 PM45 °FPartly sunny.7 mph57%29.81 "Hg34 mi
5:00 PM48 °FPartly sunny.15 mph43%29.77 "Hg37 mi
4:00 PM49 °FPartly sunny.12 mph43%29.74 "Hg37 mi
3:00 PM50 °FPassing clouds.14 mph55%29.70 "Hg37 mi
2:00 PM49 °FScattered clouds.9 mph45%29.68 "Hg37 mi
1:00 PM48 °FScattered clouds.13 mph63%29.66 "Hg37 mi
12:00 PM47 °FPartly sunny.12 mph54%29.64 "Hg28 mi
11:00 AM45 °FOvercast.8 mph65%29.63 "Hg28 mi
10:00 AM44 °FOvercast.9 mph66%29.60 "Hg28 mi
9:00 AM44 °FOvercast.10 mph74%29.57 "Hg28 mi
8:00 AM44 °FLight rain. Overcast.9 mph82%29.55 "Hg28 mi
7:00 AM44 °FLow clouds.8 mph84%29.50 "Hg12 mi
6:00 AM44 °FLight rain. Overcast.9 mph89%29.47 "Hg6 mi
Weather by CustomWeather, © 2015

See weather overviewHow to use our weather pages